Location: Baumgartsau
(48.4586°N, 14.0864°E)
Time: 00:44:59
(UTC+00:00)

SL-16 R/B - Pass Details

Date: 07 August 2020
Orbit: 843 x 845 km, 71.0° (Epoch: 26 September)

Event Time Altitude Azimuth Distance (km) Brightness Sun altitude
Rises 20:04:11 0° 336° (NNW) 3,416 6.8 -13.4°
Reaches altitude 10° 20:07:03 10° 348° (NNW) 2,478 5.5 -13.8°
Maximum altitude 20:11:48 27° 45° (NE) 1,594 3.6 -14.3°
Enters shadow 20:15:45 13° 97° (E) 2,242 4.0 -14.8°
